Tracking 26321 objects as of 28-Nov-2022
HD Live streaming from Space Station
objects crossing your sky now

NOAA 16 DEB

Track NOAA 16 DEB now!
10-day predictions


NORAD ID: 41652
Int'l Code: 2000-055NR
Perigee: 821.5 km
Apogee: 894.8 km
Inclination: 98.9 °
Period: 102.0 minutes
Semi major axis: 7229 km
RCS: Unknown
Launch date: September 21, 2000
Source: United States (US)
Launch site: AIR FORCE WESTERN TEST RANGE (AFWTR)

Note: This is SATELLITE DEBRIS
aabbcc
Your satellite tracking list
Your tracking list is empty




NASA's NSSDC Master Catalog

Two Line Element Set (TLE):
1 41652U 00055NR  22331.18235545  .00003380  00000-0  18323-2 0  9995
2 41652  98.9021  45.5810 0050690 234.2667 125.3784 14.12450462339859
Source of the keplerian elements: AFSPC